Погода в Зарка-Маине

Иордания     31°34′02″N   35°38′11″E
темп.,
°C
ветер,
м/с
пор.,
м/с
влажн.,
%
обл.,
%
осадки,
мм/ч
давл.,
гПа
погр.,
м
27 февраля, сб
сб2723:00+13вюв45470 0.0 101976
02:00+12вюв55430 0.0 101768
05:00+11вюв55430 0.0 101751
08:00+13вюв56390 0.0 1017268
11:00+18юв45260 0.0 1017952
14:00+19вюв22200 0.0 10142656
17:00+19ссв23250 0.0 101380
20:00+15всв34360 0.0 101547
28 февраля, вс
вс2823:00+13вюв23350 0.0 101524
02:00+11всв11490 0.0 101423
05:00+10ююв01520 0.0 101523
08:00+13зюз23500 0.0 1016202
11:00+14зсз44510 0.0 1016570
14:00+16зсз45410 0.0 1015856
17:00+14зсз45560 0.0 1016880
20:00+11зсз23760 0.0 1018403
1 марта, пн
пн123:00+10з23820 0.0 101990
02:00+9з33890 0.0 101879
05:00+8з339215 0.0 101972
08:00+10зюз347312 0.1 1020603
11:00+13зюз456029 0.0 1019921
14:00+14з455115 0.0 10171182
17:00+13з446236 0.0 1018836
20:00+11з227431 0.1 1019328
2 марта, вт
вт223:00+10зюз12780 0.0 102031
02:00+9зюз12790 0.0 101922
05:00+8юз12820 0.0 102022
08:00+11зюз23680 0.0 1020474
11:00+14зюз44550 0.0 1019923
14:00+15з45470 0.0 10181184
17:00+14з45490 0.0 10171068
20:00+11зсз22710 0.0 1018235
3 марта, ср
ср323:00+10з12640 0.0 101925
02:00+9зюз23670 0.0 101834
05:00+8зюз23780 0.0 101929
08:00+10зюз12795 0.0 1019400
11:00+12зюз436636 0.1 1018829
14:00+12зюз555628 0.2 1016840
17:00+12з45480 0.0 10161036
20:00+10сз12550 0.0 101848